User: anonymous   Login
Location: ??????
(55.0357°N, 38.6195°E)
Time: 20:02:34
(UTC+00:00)
Language:

Cosmos 2026 Rocket - Orbit

View from above orbital plane
View from above orbital plane
View from above satellite
View from above satellite

Ground track
Ground track

The orbit data is extracted from the following two-line orbital elements,

1 20046U 89042B   24166.58235506  .00000160  00000-0  14178-3 0  9999
2 20046  82.9366 199.0946 0043479 104.2059 256.3935 13.78438875760903
Epoch (UTC): 14 June 2024 13:58:35
Eccentricity: 0.0043479
inclination: 82.9366°
perigee height: 937 km
apogee height: 1001 km
right ascension of ascending node: 199.0946°
argument of perigee: 104.2059°
revolutions per day: 13.78438875
mean anomaly at epoch: 256.3935°
orbit number at epoch: 76090

The dashed part of the orbit path shows where the satellite is in the earth's shadow,  

DLR